When you browse on this site, cookies collect data to enhance your experience and personalize the content and advertising you see.
Visit our Privacy Policy to learn more. By continuing to use the site, you agree to this use of cookies and data.
EN

Hourly Weather Hovu-Aksy

Today, 26 September, Saturday

Time Temperature Precipitation Wind Pressure Humidity
00:00 +3°C° 0 mm 1 mps 669 mmHg 63%
01:00 +3°C° 0 mm 1 mps 670 mmHg 64%
02:00 +3°C° 0 mm 1 mps 670 mmHg 64%
03:00 +3°C° 0 mm 1 mps 670 mmHg 64%
04:00 +3°C° 0 mm 1 mps 670 mmHg 64%
05:00 +2°C° 0 mm 0 mps 671 mmHg 65%
06:00 +1°C° 0 mm 0 mps 671 mmHg 65%
07:00 +4°C° 0 mm 1 mps 671 mmHg 61%
08:00 +6°C° 0 mm 1 mps 672 mmHg 56%
09:00 +7°C° 0 mm 2 mps 672 mmHg 52%
10:00 +7°C° 0 mm 2 mps 672 mmHg 51%
11:00 +8°C° 0 mm 2 mps 672 mmHg 50%
12:00 +9°C° 0 mm 2 mps 673 mmHg 49%
13:00 +8°C° 0.2 mm 2 mps 673 mmHg 52%
14:00 +8°C° 0.2 mm 2 mps 672 mmHg 56%
15:00 +8°C° 0.2 mm 2 mps 672 mmHg 59%
16:00 +7°C° 0.1 mm 1 mps 673 mmHg 66%
17:00 +6°C° 0.1 mm 1 mps 673 mmHg 72%
18:00 +4°C° 0.1 mm 1 mps 673 mmHg 78%
19:00 +4°C° 0 mm 1 mps 673 mmHg 80%
20:00 +4°C° 0 mm 1 mps 674 mmHg 81%
21:00 +3°C° 0 mm 1 mps 674 mmHg 83%
22:00 +3°C° 0 mm 1 mps 674 mmHg 83%
23:00 +3°C° 0 mm 1 mps 675 mmHg 83%

Tomorrow, 27 September, Sunday

Time Temperature Precipitation Wind Pressure Humidity
00:00 +3°C° 0 mm 1 mps 675 mmHg 83%
01:00 +3°C° 0 mm 1 mps 675 mmHg 83%
02:00 +3°C° 0 mm 1 mps 675 mmHg 84%
03:00 +3°C° 0 mm 1 mps 675 mmHg 84%
04:00 +3°C° 0 mm 1 mps 675 mmHg 85%
05:00 +3°C° 0 mm 1 mps 676 mmHg 85%
06:00 +3°C° 0 mm 1 mps 677 mmHg 86%
07:00 +4°C° 0 mm 1 mps 677 mmHg 80%
08:00 +5°C° 0 mm 1 mps 677 mmHg 74%
09:00 +6°C° 0 mm 2 mps 677 mmHg 69%
10:00 +7°C° 0 mm 2 mps 677 mmHg 64%
11:00 +7°C° 0 mm 2 mps 677 mmHg 59%
12:00 +8°C° 0 mm 2 mps 677 mmHg 55%
13:00 +8°C° 0 mm 2 mps 677 mmHg 54%
14:00 +8°C° 0 mm 2 mps 677 mmHg 52%
15:00 +8°C° 0 mm 2 mps 677 mmHg 51%
16:00 +8°C° 0 mm 1 mps 677 mmHg 57%
17:00 +6°C° 0 mm 1 mps 677 mmHg 63%
18:00 +3°C° 0 mm 0 mps 677 mmHg 69%
19:00 +3°C° 0 mm 0 mps 677 mmHg 70%
20:00 +2°C° 0 mm 0 mps 677 mmHg 71%
21:00 +3°C° 0 mm 1 mps 677 mmHg 72%
22:00 +3°C° 0 mm 1 mps 677 mmHg 71%
23:00 +3°C° 0 mm 1 mps 677 mmHg 70%

Day after tomorrow, 28 September, Monday

Time Temperature Precipitation Wind Pressure Humidity
00:00 +3°C° 0 mm 1 mps 677 mmHg 70%
01:00 +1°C° 0 mm 0 mps 677 mmHg 69%
02:00 +1°C° 0 mm 0 mps 677 mmHg 69%
03:00 +1°C° 0 mm 0 mps 676 mmHg 69%
04:00 +1°C° 0 mm 0 mps 677 mmHg 69%
05:00 +1°C° 0 mm 0 mps 677 mmHg 69%
06:00 +1°C° 0 mm 0 mps 677 mmHg 69%
07:00 +3°C° 0 mm 0 mps 677 mmHg 62%
08:00 +6°C° 0 mm 1 mps 677 mmHg 56%
09:00 +8°C° 0 mm 1 mps 677 mmHg 50%
10:00 +9°C° 0 mm 1 mps 677 mmHg 47%
11:00 +10°C° 0 mm 1 mps 676 mmHg 45%
12:00 +11°C° 0 mm 1 mps 676 mmHg 43%
13:00 +11°C° 0 mm 1 mps 676 mmHg 44%
14:00 +11°C° 0 mm 1 mps 675 mmHg 45%
15:00 +11°C° 0 mm 1 mps 675 mmHg 46%
16:00 +9°C° 0 mm 1 mps 674 mmHg 55%
17:00 +6°C° 0 mm 0 mps 674 mmHg 64%
18:00 +4°C° 0 mm 0 mps 673 mmHg 73%
19:00 +3°C° 0 mm 0 mps 674 mmHg 74%
20:00 +4°C° 0 mm 1 mps 674 mmHg 75%
21:00 +4°C° 0 mm 1 mps 674 mmHg 76%
22:00 +4°C° 0 mm 1 mps 674 mmHg 75%
23:00 +3°C° 0 mm 1 mps 674 mmHg 75%

29 September, Tuesday

Time Temperature Precipitation Wind Pressure Humidity
00:00 +3°C° 0 mm 1 mps 674 mmHg 75%
01:00 +3°C° 0 mm 1 mps 674 mmHg 76%
02:00 +3°C° 0 mm 1 mps 673 mmHg 77%
03:00 +2°C° 0 mm 0 mps 673 mmHg 78%
04:00 +2°C° 0 mm 0 mps 673 mmHg 79%
05:00 +2°C° 0 mm 0 mps 673 mmHg 79%
06:00 +2°C° 0 mm 0 mps 673 mmHg 80%
07:00 +5°C° 0 mm 1 mps 674 mmHg 72%
08:00 +7°C° 0 mm 1 mps 674 mmHg 64%
09:00 +8°C° 0 mm 1 mps 674 mmHg 56%
10:00 +8°C° 0 mm 2 mps 674 mmHg 54%
11:00 +9°C° 0 mm 2 mps 674 mmHg 51%
12:00 +9°C° 0 mm 3 mps 673 mmHg 48%
13:00 +9°C° 0 mm 3 mps 673 mmHg 49%
14:00 +9°C° 0 mm 3 mps 673 mmHg 49%
15:00 +9°C° 0 mm 3 mps 673 mmHg 49%
16:00 +7°C° 0 mm 2 mps 673 mmHg 57%
17:00 +6°C° 0 mm 2 mps 672 mmHg 66%
18:00 +4°C° 0 mm 2 mps 672 mmHg 74%
19:00 +4°C° 0 mm 2 mps 673 mmHg 75%
20:00 +3°C° 0 mm 2 mps 673 mmHg 76%
21:00 +3°C° 0 mm 2 mps 674 mmHg 77%
22:00 +3°C° 0.1 mm 2 mps 674 mmHg 81%
23:00 +4°C° 0.1 mm 1 mps 674 mmHg 85%

30 September, Wednesday

Time Temperature Precipitation Wind Pressure Humidity
00:00 +3°C° 0.1 mm 1 mps 674 mmHg 90%
01:00 +3°C° 0.1 mm 1 mps 674 mmHg 91%
02:00 +3°C° 0.1 mm 1 mps 674 mmHg 92%
03:00 +2°C° 0.1 mm 1 mps 674 mmHg 94%
04:00 +2°C° 0.1 mm 1 mps 675 mmHg 93%
05:00 +2°C° 0.1 mm 1 mps 675 mmHg 93%
06:00 +2°C° 0.1 mm 1 mps 675 mmHg 93%
07:00 +2°C° 0.2 mm 2 mps 676 mmHg 86%
08:00 +2°C° 0.2 mm 2 mps 677 mmHg 80%
09:00 +2°C° 0.2 mm 3 mps 677 mmHg 74%
10:00 +2°C° 0.1 mm 3 mps 677 mmHg 68%
11:00 +3°C° 0.1 mm 4 mps 677 mmHg 62%
12:00 +3°C° 0.1 mm 4 mps 677 mmHg 57%
13:00 +3°C° 0 mm 4 mps 677 mmHg 54%
14:00 +3°C° 0 mm 4 mps 677 mmHg 51%
15:00 +3°C° 0 mm 4 mps 677 mmHg 48%
16:00 +1°C° 0 mm 3 mps 677 mmHg 52%
17:00 +1°C° 0 mm 2 mps 677 mmHg 56%
18:00 0°C° 0 mm 1 mps 677 mmHg 61%
19:00 0°C° 0 mm 1 mps 677 mmHg 60%
20:00 -1°C° 0 mm 0 mps 677 mmHg 60%
21:00 -2°C° 0 mm 0 mps 677 mmHg 59%
22:00 -2°C° 0 mm 0 mps 677 mmHg 58%
23:00 -1°C° 0 mm 0 mps 677 mmHg 57%

1 October, Thursday

Time Temperature Precipitation Wind Pressure Humidity
00:00 -1°C° 0 mm 0 mps 677 mmHg 55%
01:00 -1°C° 0 mm 0 mps 676 mmHg 54%
02:00 -1°C° 0 mm 0 mps 676 mmHg 53%
03:00 0°C° 0 mm 1 mps 676 mmHg 52%
04:00 0°C° 0 mm 1 mps 676 mmHg 53%
05:00 0°C° 0 mm 1 mps 676 mmHg 54%
06:00 0°C° 0 mm 1 mps 676 mmHg 56%
07:00 +1°C° 0 mm 1 mps 676 mmHg 52%
08:00 +3°C° 0 mm 1 mps 676 mmHg 49%
09:00 +4°C° 0 mm 1 mps 676 mmHg 45%
10:00 +5°C° 0 mm 1 mps 676 mmHg 43%
11:00 +6°C° 0 mm 1 mps 675 mmHg 41%
12:00 +7°C° 0 mm 1 mps 675 mmHg 39%
13:00 +7°C° 0 mm 1 mps 674 mmHg 41%
14:00 +7°C° 0 mm 1 mps 674 mmHg 42%
15:00 +7°C° 0 mm 1 mps 674 mmHg 44%
16:00 +5°C° 0 mm 1 mps 673 mmHg 51%
17:00 +3°C° 0 mm 0 mps 673 mmHg 57%
18:00 +1°C° 0 mm 0 mps 673 mmHg 64%
19:00 +1°C° 0 mm 0 mps 673 mmHg 64%
20:00 +1°C° 0 mm 0 mps 673 mmHg 64%
21:00 +1°C° 0 mm 0 mps 673 mmHg 63%
22:00 +2°C° 0 mm 1 mps 673 mmHg 65%
23:00 +2°C° 0 mm 1 mps 673 mmHg 67%
Show more